Time,TemperatureF,DewpointF,PressureIn,WindDirection,WindDirectionDegrees,WindSpeedMPH,WindSpeedGustMPH,Humidity,HourlyPrecipIn,Conditions,Clouds,dailyrainin,SolarRadiationWatts/m^2,SoftwareType,DateUTC
2013-05-04 00:32:00,63.0,36.0,-100.00,SSE,161,5.0,14.0,37,-99.99,,,0.00,0.000000,,2013-05-04 07:32:00,
2013-05-04 01:32:00,62.0,31.0,-100.00,SSE,150,5.0,10.0,31,-99.99,,,0.00,0.000000,,2013-05-04 08:32:00,
2013-05-04 02:32:00,60.0,34.0,-100.00,SSE,163,4.0,11.0,37,-99.99,,,0.00,0.000000,,2013-05-04 09:32:00,
2013-05-04 03:33:00,61.0,32.0,-100.00,ESE,123,4.0,12.0,34,-99.99,,,0.00,0.000000,,2013-05-04 10:33:00,
2013-05-04 04:32:00,58.0,35.0,-100.00,South,173,5.0,10.0,42,-99.99,,,0.00,0.000000,,2013-05-04 11:32:00,
2013-05-04 07:32:00,56.0,38.0,-100.00,South,178,8.0,12.0,50,-99.99,,,0.00,56.000000,,2013-05-04 14:32:00,
2013-05-04 08:33:00,60.0,42.0,-100.00,South,179,6.0,12.0,51,-99.99,,,0.00,244.000000,,2013-05-04 15:33:00,
2013-05-04 09:33:00,67.0,42.0,-100.00,South,180,6.0,14.0,40,0.00,,,0.00,458.000000,,2013-05-04 16:33:00,
2013-05-04 11:01:00,73.0,42.0,-100.00,SE,126,4.0,11.0,33,0.00,,,0.00,668.000000,,2013-05-04 18:01:00,
2013-05-04 11:32:00,74.0,41.0,-100.00,ESE,108,8.0,18.0,30,0.00,,,0.00,838.000000,,2013-05-04 18:32:00,
2013-05-04 11:42:00,74.0,41.0,-100.00,ESE,108,8.0,18.0,30,0.00,,,0.00,838.000000,,2013-05-04 18:42:00,
2013-05-04 11:52:00,74.0,41.0,-100.00,ESE,108,8.0,18.0,30,0.00,,,0.00,838.000000,,2013-05-04 18:52:00,
2013-05-04 12:01:00,74.0,41.0,-100.00,ESE,108,8.0,18.0,30,0.00,,,0.00,838.000000,,2013-05-04 19:01:00,
2013-05-04 12:32:00,76.0,43.0,-100.00,ESE,114,9.0,20.0,31,0.00,,,-99.99,976.000000,,2013-05-04 19:32:00,
2013-05-04 12:42:00,76.0,43.0,-100.00,ESE,114,9.0,20.0,31,0.00,,,-99.99,976.000000,,2013-05-04 19:42:00,
2013-05-04 12:52:00,76.0,43.0,-100.00,ESE,114,9.0,20.0,31,0.00,,,-99.99,976.000000,,2013-05-04 19:52:00,
2013-05-04 13:01:00,76.0,43.0,-100.00,ESE,114,9.0,20.0,31,0.00,,,-99.99,976.000000,,2013-05-04 20:01:00,
2013-05-04 13:32:00,77.0,35.0,-100.00,SE,128,10.0,27.0,22,0.00,,,0.00,1031.000000,,2013-05-04 20:32:00,
2013-05-04 13:42:00,77.0,35.0,-100.00,SE,128,10.0,27.0,22,0.00,,,0.00,1031.000000,,2013-05-04 20:42:00,
2013-05-04 13:52:00,77.0,35.0,-100.00,SE,128,10.0,27.0,22,0.00,,,0.00,1031.000000,,2013-05-04 20:52:00,
2013-05-04 14:01:00,77.0,35.0,-100.00,SE,128,10.0,27.0,22,0.00,,,0.00,1031.000000,,2013-05-04 21:01:00,
2013-05-04 14:33:00,82.0,33.0,-100.00,East,94,4.0,26.0,17,0.00,,,0.00,1036.000000,,2013-05-04 21:33:00,
2013-05-04 14:43:00,82.0,33.0,-100.00,East,94,4.0,26.0,17,0.00,,,0.00,1036.000000,,2013-05-04 21:43:00,
2013-05-04 14:53:00,82.0,33.0,-100.00,East,94,4.0,26.0,17,0.00,,,0.00,1036.000000,,2013-05-04 21:53:00,
2013-05-04 15:02:00,82.0,33.0,-100.00,East,94,4.0,26.0,17,0.00,,,0.00,1036.000000,,2013-05-04 22:02:00,
2013-05-04 15:33:00,80.0,37.0,-100.00,East,84,7.0,24.0,21,0.00,,,-99.99,947.000000,,2013-05-04 22:33:00,
2013-05-04 15:42:00,80.0,37.0,-100.00,East,84,7.0,24.0,21,0.00,,,-99.99,947.000000,,2013-05-04 22:42:00,
2013-05-04 15:52:00,80.0,37.0,-100.00,East,84,7.0,24.0,21,0.00,,,-99.99,947.000000,,2013-05-04 22:52:00,
2013-05-04 16:02:00,80.0,37.0,-100.00,East,84,7.0,24.0,21,0.00,,,-99.99,947.000000,,2013-05-04 23:02:00,
2013-05-04 16:32:00,80.0,34.0,-100.00,ESE,123,9.0,22.0,19,0.00,,,-99.99,457.000000,,2013-05-04 23:32:00,
2013-05-04 16:42:00,80.0,34.0,-100.00,ESE,123,9.0,22.0,19,0.00,,,-99.99,457.000000,,2013-05-04 23:42:00,
2013-05-04 16:52:00,80.0,34.0,-100.00,ESE,123,9.0,22.0,19,0.00,,,-99.99,457.000000,,2013-05-04 23:52:00,
2013-05-04 17:01:00,80.0,34.0,-100.00,ESE,123,9.0,22.0,19,0.00,,,-99.99,457.000000,,2013-05-05 00:01:00,
2013-05-04 17:32:00,79.0,32.0,-100.00,NE,46,8.0,24.0,18,0.00,,,-99.99,563.000000,,2013-05-05 00:32:00,
2013-05-04 17:42:00,79.0,32.0,-100.00,NE,46,8.0,24.0,18,0.00,,,-99.99,563.000000,,2013-05-05 00:42:00,
2013-05-04 17:52:00,79.0,32.0,-100.00,NE,46,8.0,24.0,18,0.00,,,-99.99,563.000000,,2013-05-05 00:52:00,
2013-05-04 18:32:00,78.0,31.0,-100.00,NE,54,8.0,25.0,18,0.00,,,0.00,527.000000,,2013-05-05 01:32:00,
2013-05-04 18:42:00,78.0,31.0,-100.00,NE,54,8.0,25.0,18,0.00,,,0.00,527.000000,,2013-05-05 01:42:00,
2013-05-04 18:52:00,78.0,31.0,-100.00,NE,54,8.0,25.0,18,0.00,,,0.00,527.000000,,2013-05-05 01:52:00,
2013-05-04 19:02:00,78.0,31.0,-100.00,NE,54,8.0,25.0,18,0.00,,,0.00,527.000000,,2013-05-05 02:02:00,
2013-05-04 19:32:00,76.0,28.0,-100.00,NE,42,7.0,23.0,17,0.00,,,0.00,278.000000,,2013-05-05 02:32:00,
2013-05-04 19:42:00,76.0,28.0,-100.00,NE,42,7.0,23.0,17,0.00,,,0.00,278.000000,,2013-05-05 02:42:00,
2013-05-04 19:52:00,76.0,28.0,-100.00,NE,42,7.0,23.0,17,0.00,,,0.00,278.000000,,2013-05-05 02:52:00,
2013-05-04 20:01:00,76.0,28.0,-100.00,NE,42,7.0,23.0,17,0.00,,,0.00,278.000000,,2013-05-05 03:01:00,
2013-05-04 20:33:00,73.0,30.0,-100.00,ENE,63,7.0,22.0,20,0.00,,,0.00,103.000000,,2013-05-05 03:33:00,
2013-05-04 20:42:00,73.0,30.0,-100.00,ENE,63,7.0,22.0,20,0.00,,,0.00,103.000000,,2013-05-05 03:42:00,
2013-05-04 20:53:00,73.0,30.0,-100.00,ENE,63,7.0,22.0,20,0.00,,,0.00,103.000000,,2013-05-05 03:53:00,
2013-05-04 21:02:00,73.0,30.0,-100.00,ENE,63,7.0,22.0,20,0.00,,,0.00,103.000000,,2013-05-05 04:02:00,
2013-05-04 21:33:00,70.0,26.0,-100.00,ENE,73,6.0,21.0,19,0.00,,,0.00,3.000000,,2013-05-05 04:33:00,
2013-05-04 21:43:00,70.0,26.0,-100.00,ENE,73,6.0,21.0,19,0.00,,,0.00,3.000000,,2013-05-05 04:43:00,
2013-05-04 21:52:00,70.0,26.0,-100.00,ENE,73,6.0,21.0,19,0.00,,,0.00,3.000000,,2013-05-05 04:52:00,
2013-05-04 22:02:00,70.0,26.0,-100.00,ENE,73,6.0,21.0,19,0.00,,,0.00,3.000000,,2013-05-05 05:02:00,
2013-05-04 22:32:00,70.0,26.0,-100.00,ENE,59,11.0,27.0,19,0.00,,,0.00,0.000000,,2013-05-05 05:32:00,
2013-05-04 22:42:00,70.0,26.0,-100.00,ENE,59,11.0,27.0,19,0.00,,,0.00,0.000000,,2013-05-05 05:42:00,
2013-05-04 22:52:00,70.0,26.0,-100.00,ENE,59,11.0,27.0,19,0.00,,,0.00,0.000000,,2013-05-05 05:52:00,
2013-05-04 23:01:00,70.0,26.0,-100.00,ENE,59,11.0,27.0,19,0.00,,,0.00,0.000000,,2013-05-05 06:01:00,
2013-05-04 23:32:00,69.0,26.0,-100.00,East,90,9.0,22.0,20,0.00,,,0.00,0.000000,,2013-05-05 06:32:00,
2013-05-04 23:42:00,69.0,26.0,-100.00,East,90,9.0,22.0,20,0.00,,,0.00,0.000000,,2013-05-05 06:42:00,
2013-05-04 23:52:00,69.0,26.0,-100.00,East,90,9.0,22.0,20,0.00,,,0.00,0.000000,,2013-05-05 06:52:00,